Location: Beetenbrück
(52.8113°N, 9.5946°E)
Time: 17:28:20
(UTC+00:00)

BREEZE-M DEB (TANK) - Pass Details

Date: 14 April 2026
Orbit: 313 x 13097 km, 49.6° (Epoch: 8 May)

Event Time Altitude Azimuth Distance (km) Brightness Sun altitude
Rises 21:28:14 0° 267° (W) 2,238 6.3 -23.0°
Reaches altitude 10° 21:29:37 10° 263° (W) 1,583 5.4 -23.1°
Enters shadow 21:31:53 48° 227° (SW) 822 3.5 -23.3°
Exits shadow 21:45:13 - 104° (ESE) 6,058 7.7 -24.2°
Sets 21:47:16 0° 104° (ESE) 6,879 8.0 -24.3°
